MM9SQL Weather Reports


time (UTC)temp
F
wind
direction
speed
knots
gust
knots
rain 1hr
in
rain 24hr
in
rain mn
in
humidity
%
barometer
mb
20260506184511 50 191 0.0 3.5 0.00 0.00 0.00 60 1012.7
20260506184003 50 212 0.0 3.5 0.00 0.00 0.00 60 1012.7
20260506183508 50 200 0.0 4.3 0.00 0.00 0.00 60 1012.6
20260506183016 51 182 0.9 4.3 0.00 0.00 0.00 59 1012.7
20260506182507 51 214 0.9 3.5 0.00 0.00 0.00 57 1012.8
20260506182010 51 196 0.9 1.7 0.00 0.00 0.00 57 1012.8
20260506181520 51 207 0.0 0.9 0.00 0.00 0.00 58 1012.8
20260506181008 51 203 0.0 2.6 0.00 0.00 0.00 58 1012.9
20260506180510 51 349 0.0 2.6 0.00 0.00 0.00 58 1012.8
20260506180005 51 15 0.0 1.7 0.00 0.00 0.00 57 1012.8
20260506175503 51 23 0.0 1.7 0.00 0.00 0.00 58 1012.8
20260506175003 51 42 0.0 1.7 0.00 0.00 0.00 59 1012.8
20260506174513 51 100 0.9 2.6 0.00 0.00 0.00 59 1012.9
20260506174004 51 72 0.9 2.6 0.00 0.00 0.00 60 1012.9
20260506173504 51 110 0.9 2.6 0.00 0.00 0.00 59 1012.8
20260506173012 51 81 0.9 1.7 0.00 0.00 0.00 60 1012.8
20260506172503 51 115 0.0 3.5 0.00 0.00 0.00 61 1012.8
20260506172003 51 89 0.9 4.3 0.00 0.00 0.00 61 1012.8
20260506171516 51 107 0.9 4.3 0.00 0.00 0.00 60 1012.8
20260506171007 51 48 0.9 5.2 0.00 0.00 0.00 60 1012.9
20260506170508 51 354 1.7 5.2 0.00 0.00 0.00 59 1013.0
20260506170022 51 127 1.7 4.3 0.00 0.00 0.00 59 1013.0
20260506165007 51 50 0.9 6.1 0.00 0.00 0.00 58 1013.1
20260506164508 51 61 0.9 4.3 0.00 0.00 0.00 59 1013.2
20260506164003 51 39 0.9 5.2 0.00 0.00 0.00 60 1013.2
20260506163504 51 30 2.6 5.2 0.00 0.00 0.00 57 1013.3
20260506163017 52 214 0.9 6.1 0.00 0.00 0.00 55 1013.3
20260506162505 51 221 2.6 6.1 0.00 0.00 0.00 55 1013.4
20260506162010 51 148 0.9 4.3 0.00 0.00 0.00 54 1013.4
20260506161514 51 236 1.7 6.1 0.00 0.00 0.00 56 1013.6
20260506161004 50 155 0.9 6.1 0.00 0.00 0.00 58 1013.7
20260506160507 50 39 1.7 5.2 0.00 0.00 0.00 58 1013.7
20260506160020 50 68 1.7 7.0 0.00 0.00 0.00 56 1013.8
20260506155507 50 101 1.7 7.0 0.00 0.00 0.00 57 1013.8
20260506155005 50 26 1.7 5.2 0.00 0.00 0.00 55 1013.9
20260506154532 50 11 2.6 5.2 0.00 0.00 0.00 55 1013.9
20260506154007 50 161 0.9 5.2 0.00 0.00 0.00 56 1014.0
20260506153509 50 74 2.6 6.1 0.00 0.00 0.00 55 1014.0
20260506153027 50 352 1.7 6.1 0.00 0.00 0.00 55 1014.0
20260506152503 51 46 1.7 6.1 0.00 0.00 0.00 54 1014.1
20260506152006 51 121 0.9 7.8 0.00 0.00 0.00 55 1014.0
20260506151511 51 51 2.6 7.8 0.00 0.00 0.00 54 1014.0
20260506151008 51 6 0.9 7.8 0.00 0.00 0.00 56 1014.0
20260506150504 51 113 0.9 7.8 0.00 0.00 0.00 55 1014.1
20260506150014 51 113 1.7 7.0 0.00 0.00 0.00 56 1014.0
20260506145505 52 142 1.7 7.0 0.00 0.00 0.00 52 1014.1
20260506145007 52 97 3.5 7.0 0.00 0.00 0.00 52 1014.1
20260506144004 54 341 2.6 6.1 0.00 0.00 0.00 49 1014.1
20260506143507 54 122 1.7 5.2 0.00 0.00 0.00 50 1014.2
20260506143004 54 166 0.9 5.2 0.00 0.00 0.00 51 1014.2
20260506142503 53 159 1.7 7.0 0.00 0.00 0.00 51 1014.3
20260506142003 53 36 1.7 7.0 0.00 0.00 0.00 55 1014.4
20260506141504 52 345 0.9 7.8 0.00 0.00 0.00 52 1014.4
20260506140504 52 195 1.7 6.1 0.00 0.00 0.00 52 1014.5
20260506140019 52 41 0.9 7.0 0.00 0.00 0.00 51 1014.5
20260506135509 53 72 2.6 7.0 0.00 0.00 0.00 48 1014.5
20260506135002 53 220 1.7 7.0 0.00 0.00 0.00 51 1014.5
20260506134505 52 221 0.9 7.0 0.00 0.00 0.00 53 1014.6
20260506134005 52 86 1.7 5.2 0.00 0.00 0.00 54 1014.6
20260506133503 52 81 0.9 7.0 0.00 0.00 0.00 54 1014.7
20260506133002 53 1 2.6 7.0 0.00 0.00 0.00 52 1014.9
20260506132506 53 90 1.7 5.2 0.00 0.00 0.00 53 1014.8
20260506131510 52 344 3.5 7.0 0.00 0.00 0.00 53 1014.9
20260506131005 52 242 2.6 7.0 0.00 0.00 0.00 56 1015.0
20260506130505 52 358 1.7 7.0 0.00 0.00 0.00 53 1015.1
20260506130008 52 20 1.7 7.0 0.00 0.00 0.00 53 1015.2
20260506125503 52 283 0.9 6.1 0.00 0.00 0.00 56 1015.2
20260506125004 51 328 1.7 6.1 0.00 0.00 0.00 56 1015.1
20260506124006 51 42 0.0 5.2 0.00 0.00 0.00 59 1015.1
20260506123505 50 6 1.7 5.2 0.00 0.00 0.00 56 1015.3
20260506123007 50 111 0.9 4.3 0.00 0.00 0.00 58 1015.3
20260506122503 50 39 0.9 5.2 0.00 0.00 0.00 58 1015.2
20260506122002 50 56 1.7 5.2 0.00 0.00 0.00 56 1015.2
20260506121502 50 122 1.7 5.2 0.00 0.00 0.00 58 1015.2
20260506120504 49 8 1.7 5.2 0.00 0.00 0.00 56 1015.2
20260506120011 49 84 0.9 5.2 0.00 0.00 0.00 56 1015.2
20260506115503 49 4 1.7 5.2 0.00 0.00 0.00 55 1015.4
20260506115003 49 347 0.9 6.1 0.00 0.00 0.00 55 1015.3
20260506114508 50 2 2.6 6.1 0.00 0.00 0.00 53 1015.3
20260506114005 50 346 0.9 3.5 0.00 0.00 0.00 54 1015.2
20260506113506 50 89 1.7 5.2 0.00 0.00 0.00 54 1015.3
20260506113014 50 251 0.9 9.6 0.00 0.00 0.00 54 1015.3
20260506112504 51 354 1.7 16.5 0.00 0.00 0.00 51 1015.3
20260506112006 53 45 2.6 16.5 0.00 0.00 0.00 49 1015.2
20260506111526 52 195 0.9 3.5 0.00 0.00 0.00 44 1015.2
20260506111003 52 167 0.9 2.6 0.00 0.00 0.00 44 1015.2
20260506110503 51 255 0.9 5.2 0.00 0.00 0.00 50 1015.2
20260506110004 51 259 0.9 5.2 0.00 0.00 0.00 46 1015.3
20260506105503 52 218 1.7 4.3 0.00 0.00 0.00 46 1015.3
20260506105006 52 198 1.7 4.3 0.00 0.00 0.00 46 1015.3
20260506104507 53 230 0.0 3.5 0.00 0.00 0.00 50 1015.3
20260506104005 52 323 1.7 3.5 0.00 0.00 0.00 48 1015.2
20260506103503 52 212 0.9 3.5 0.00 0.00 0.00 50 1015.2
20260506103011 51 231 1.7 4.3 0.00 0.00 0.00 51 1015.3
20260506102503 51 229 1.7 5.2 0.00 0.00 0.00 53 1015.3
20260506101517 50 200 0.0 4.3 0.00 0.00 0.00 58 1015.4
20260506101006 50 204 1.7 4.3 0.00 0.00 0.00 58 1015.4
20260506100507 49 205 1.7 4.3 0.00 0.00 0.00 56 1015.5
20260506100018 49 210 0.9 4.3 0.00 0.00 0.00 59 1015.6
20260506095503 49 255 1.7 4.3 0.00 0.00 0.00 58 1015.7
20260506095004 48 99 0.0 4.3 0.00 0.00 0.00 62 1015.7
20260506094506 47 205 0.9 4.3 0.00 0.00 0.00 62 1015.7
20260506094003 47 35 1.7 3.5 0.00 0.00 0.00 60 1015.8
20260506093502 47 301 1.7 2.6 0.00 0.00 0.00 62 1015.9
20260506093006 47 52 0.0 3.5 0.00 0.00 0.00 62 1015.9
20260506092504 46 24 1.7 3.5 0.00 0.00 0.00 60 1016.0
20260506092007 47 6 0.9 2.6 0.00 0.00 0.00 61 1016.0
20260506091514 47 196 1.7 2.6 0.00 0.00 0.00 60 1016.0
20260506091010 46 224 0.9 2.6 0.00 0.00 0.00 61 1016.1
20260506090506 46 261 0.0 3.5 0.00 0.00 0.00 63 1016.2
20260506090017 46 197 1.7 3.5 0.00 0.00 0.00 61 1016.2
20260506085505 46 281 0.0 2.6 0.00 0.00 0.00 63 1016.3
20260506085006 46 268 0.9 4.3 0.00 0.00 0.00 63 1016.3
20260506084533 45 198 0.9 4.3 0.00 0.00 0.00 62 1016.4
20260506084010 45 239 0.9 2.6 0.00 0.00 0.00 63 1016.4
20260506083504 45 245 0.9 2.6 0.00 0.00 0.00 63 1016.4
20260506083015 45 255 0.0 4.3 0.00 0.00 0.00 64 1016.4
20260506082505 45 268 0.0 4.3 0.00 0.00 0.00 63 1016.5
20260506082003 45 283 0.9 2.6 0.00 0.00 0.00 63 1016.4
20260506081506 44 258 0.9 3.5 0.00 0.00 0.00 64 1016.5
20260506081011 44 239 1.7 3.5 0.00 0.00 0.00 64 1016.5
20260506080506 44 214 0.9 3.5 0.00 0.00 0.00 64 1016.5
20260506073509 43 249 0.9 3.5 0.00 0.00 0.00 67 1016.6
20260506073023 43 210 0.9 3.5 0.00 0.00 0.00 69 1016.6
20260506072507 43 244 2.6 3.5 0.00 0.00 0.00 69 1016.6
20260506072010 43 250 0.9 2.6 0.00 0.00 0.00 70 1016.7
20260506071506 42 245 0.9 1.7 0.00 0.00 0.00 72 1016.6
20260506070504 42 210 0.0 1.7 0.00 0.00 0.00 73 1016.6
20260506062513 37 8 0.0 0.0 0.00 0.00 0.00 85 1016.6
20260506061010 36 7 0.0 0.9 0.00 0.00 0.00 88 1016.5
20260506060509 36 7 0.0 0.9 0.00 0.00 0.00 89 1016.5
20260506050502 31 53 0.0 0.0 0.00 0.00 0.00 92 1016.8
20260506045002 31 54 0.0 0.9 0.00 0.00 0.00 92 1017.0
20260506044514 31 54 0.0 0.9 0.00 0.00 0.00 92 1017.1
20260506044003 30 274 0.0 0.0 0.00 0.01 0.00 92 1017.1
20260506043503 30 274 0.0 0.0 0.00 0.01 0.00 92 1017.0
20260506043015 30 274 0.0 0.0 0.00 0.01 0.00 92 1017.0
20260506040503 30 274 0.0 0.0 0.00 0.01 0.00 92 1016.9
20260506034004 29 274 0.0 0.0 0.00 0.01 0.00 91 1017.2
20260506033503 28 274 0.0 0.0 0.00 0.01 0.00 91 1017.3
20260506033007 28 274 0.0 0.0 0.00 0.01 0.00 91 1017.3
20260506030021 29 274 0.0 0.0 0.00 0.01 0.00 90 1017.3
20260506014522 30 274 0.0 0.0 0.00 0.01 0.00 89 1017.5
20260506014006 30 274 0.0 0.0 0.00 0.02 0.00 90 1017.5
20260506011518 31 245 0.0 0.0 0.00 0.02 0.00 89 1017.4
20260506004006 31 245 0.0 0.0 0.00 0.02 0.00 89 1017.7
20260506001521 32 245 0.0 0.0 0.00 0.03 0.00 88 1017.8
20260506001007 32 245 0.0 0.0 0.00 0.03 0.00 88 1017.9
20260506000504 32 245 0.0 0.0 0.00 0.03 0.00 87 1017.8
20260506000007 32 245 0.0 0.0 0.00 0.03 0.00 87 1017.9
20260505233503 33 245 0.0 0.0 0.00 0.03 0.00 87 1018.0
20260505230005 35 191 0.0 0.0 0.00 0.03 0.00 86 1018.3
20260505223504 35 186 0.0 0.9 0.00 0.03 0.03 86 1018.3
20260505223003 36 186 0.0 0.9 0.00 0.03 0.03 86 1018.3
20260505220502 36 184 0.0 0.0 0.00 0.03 0.03 85 1018.4
20260505220008 36 184 0.0 0.0 0.00 0.03 0.03 84 1018.4
20260505215503 36 184 0.0 0.0 0.00 0.03 0.03 84 1018.4
20260505215003 37 184 0.0 0.0 0.00 0.03 0.03 84 1018.5
20260505214503 37 184 0.0 0.0 0.00 0.03 0.03 84 1018.5
20260505214003 37 58 0.0 0.9 0.00 0.03 0.03 83 1018.5
20260505213503 37 58 0.0 0.9 0.00 0.03 0.03 82 1018.5
20260505213003 37 58 0.0 0.0 0.00 0.03 0.03 82 1018.5
20260505212503 37 58 0.0 0.9 0.00 0.03 0.03 82 1018.4
20260505212003 38 57 0.0 0.9 0.00 0.03 0.03 81 1018.4
20260505211503 38 57 0.0 0.0 0.00 0.03 0.03 80 1018.4
20260505211003 38 57 0.0 0.9 0.00 0.03 0.03 80 1018.5
20260505210502 39 57 0.0 0.9 0.00 0.03 0.03 79 1018.4
20260505210004 39 61 0.0 0.9 0.00 0.03 0.03 79 1018.5
20260505205506 39 131 0.0 0.9 0.00 0.03 0.03 78 1018.5
20260505205004 40 136 0.0 2.6 0.00 0.03 0.03 78 1018.4
20260505204506 40 6 0.0 3.5 0.00 0.03 0.03 77 1018.5
20260505204003 40 27 0.0 3.5 0.00 0.03 0.03 76 1018.5
20260505203502 41 65 0.9 2.6 0.00 0.03 0.03 75 1018.4
20260505203004 41 132 0.0 2.6 0.00 0.03 0.03 74 1018.5
20260505202504 41 11 0.0 2.6 0.00 0.04 0.03 74 1018.5
20260505202004 41 39 0.0 0.9 0.00 0.04 0.03 72 1018.4
20260505201504 41 124 0.0 0.0 0.00 0.05 0.03 71 1018.3
20260505201003 42 124 0.0 0.9 0.00 0.05 0.03 71 1018.4
20260505200503 42 124 0.0 0.9 0.00 0.05 0.03 70 1018.5
20260505200008 42 124 0.0 0.9 0.00 0.05 0.03 70 1018.6
20260505195503 42 124 0.0 0.9 0.00 0.05 0.03 70 1018.5
20260505195003 43 123 0.0 0.9 0.00 0.06 0.03 70 1018.5
20260505194505 43 73 0.0 0.9 0.00 0.07 0.03 69 1018.5
20260505194004 43 354 0.0 0.9 0.00 0.07 0.03 69 1018.5
20260505193503 43 354 0.0 0.9 0.00 0.07 0.03 69 1018.4
20260505193004 43 108 0.0 0.9 0.00 0.07 0.03 68 1018.3
20260505192501 43 106 0.0 0.9 0.00 0.07 0.03 67 1018.3
20260505192002 44 118 0.0 0.9 0.00 0.07 0.03 67 1018.3
20260505191521 44 124 0.0 0.9 0.00 0.07 0.03 66 1018.3
20260505191003 44 20 0.0 0.9 0.00 0.07 0.03 65 1018.2
20260505190504 44 340 0.0 0.9 0.00 0.07 0.03 64 1018.3
20260505190008 44 103 0.0 0.9 0.00 0.07 0.03 65 1018.2
20260505185503 45 9 0.0 0.9 0.00 0.07 0.03 65 1018.2
20260505185004 45 10 0.0 0.9 0.00 0.07 0.03 66 1018.2